Probability
0 0 0 0 0 0 0 0 0 0 0 0 0 0 0 0 0 0 0 0 0 0 0 0 0 0 0 0 0 0 0 0 0 0 0 0 0 0 0 0 0 0 0 0
0 0 0 0 0 0 0 0 0 0 0 0 0 0 0 0 0 0 0 0 0 0 0 0 0 0 0 0 0 0 0 0 0 0 0 0 0 0 0 0 0 0 0 0
0 0 0 0 0 0 0 0 0 0 0 0 0 0 0 0 0 0 0 0 0 0 0 0 0 0 0 0 0 0 0 0 0 0 0 0 0 0 0 0 0 0 0 0
0 0 0 0 0 0 0 0 0 0 0 0 0 0 0 0 0 0 0 0 0 0 0 0 0 0 0 0 0 0 0 0 0 0 0 0 0 0 0 0 0 0 0 0
0 0 0 0 0 0 0 0 0 0 0 0 0 0 0 0 0 0 0 0 0 0 0 0 0 0 0 0 0 0 0 0 0 0 0 0 0 0 0 0 0 0 0 0
0 0 0 0 0 0 0 0 0 0 0 0 0 0 0 0 0 0 0 0 0 0 0 0 0 0 0 0 0 0 0 0 0 0 0 0 0 0 0 0 0 0 0 0
0 0 0 0 0 0 0 0 0 0 0 0 0 0 0 0 0 0 0 0 0 0 0 0 0 0 0 0 0 0 0 0 0 0 0 0 0 0 0 0 0 0 0 0
0 0 0 0 0 0 0 0 0 0 0 0 0 0 0 0 0 0 0 0 0 0 0 0 0 0 0 0 0 0 0 0 0 0 0 0 0 0 0 0 0 0 0 0
0 0 0 0 0 0 0 0 0 0 0 0 0 0 0 0 0 0 0 0 0 0 0 0 0 0 0 0 0 0 0 0 0 0 0 0 0 0 0 0 0 0 0 0
0 0 0 0 0 0 0 0 0 0 0 0 0 0 0 0 0 0 0 0 0 0 0 0 0 0 0 0 0 0 0 0 0 0 0 0 0 0 0 0 0 0 0 0
0 0 0 0 0 0 0 0 0 0 0 0 0 0 0 0 0 0 0 0 0 0 0 0 0 0 0 0 0 0 0 0 0 0 0 0 0 0 0 0 0 0 0 0
0 0 0 0 0 0 0 0 0 0 0 0 0 0 0 0 0 0 0 0 0 0 0 0 0 0 0 0 0 0 0 0 0 0 0 0 0 0 0 0 0 0 0 0
0 0 0 0 0 0 0 0 0 0 0 0 0 0 0 0 0 0 0 0 0 0 0 0 0 0 0 0 0 0 0 0 0 0 0 0 0 0 0 0 0 0 0 0
0 0 0 0 0 0 0 0 0 0 0 0 0 0 0 0 0 0 0 0 0 0 0 0 0 0 0 0 0 0 0 0 0 0 0 0 0 0 0 0 0 0 0 0
0 0 0 0 0 0 0 0 0 0 0 0 0 0 0 0 0 0 0 0 0 0 0 0 0 0 0 0 0 0 0 0 0 0 0 0 0 0 0 0 0 0 0 0
0 0 0 0 0 0 0 0 0 0 0 0 0 0 0 0 0 0 0 0 0 0 0 0 0 0 0 0 0 0 0 0 0 0 0 0 0 0 0 0 0 0 0 0
0 0 0 0 0 0 0 0 0 0 0 0 0 0 0 0 0 0 0 0 0 0 0 0 0 0 0 0 0 0 0 0 0 0 0 0 0 0 0 0 0 0 0 0
0 0 0 0 0 0 0 0 0 0 0 0 0 0 0 0 0 0 0 0 0 0 0 0 0 0 0 0 0 0 0 0 0 0 0 0 0 0 0 0 0 0 0 0
0 0 0 0 0 0 0 0 0 0 0 0 0 0 0 0 0 0 0 0 0 0 0 0 0 0 0 0 0 0 0 0 0 0 0 0 0 0 0 0 0 0 0 0
0 0 0 0 0 0 0 0 0 0 0 0 0 0 0 0 0 0 0 0 0 0 0 0 0 0 0 0 0 0 0 0 0 0 0 0 0 0 0 0 0 0 0 0
0 0 0 0 0 0 0 0 0 0 0 0 0 0 0 0 0 0 0 0 0 0 0 0 0 0 0 0 0 0 0 0 0 0 0 0 0 0 0 0 0 0 0 0
0 0 0 0 0 0 0 0 0 0 0 0 0 0 0 0 0 0 0 0 0 0 0 0 0 0 0 0 0 0 0 0 0 0 0 0 0 0 0 0 0 0 0 0
0 0 0 0 0 0 0 0 0 0 0 0 0 0 0 0 0 0 0 0 0 0 0 0 0 0 0 0 0 0 0 0 0 0 0 0 0 0 0 0 0 0 0 0
0 0 0 0 0 0 0 0 0 0 0 0 0 0 0 0 0 0 0 0 0 0 0 0 0 0 0 0 0 0 0 0 0 0 0 0 0 0 0 0 0 0 0 0
0 0 0 0 0 0 0 0 0 0 0 0 0 0 0 0 0 0 0 0 0 0 0 0 0 0 0 0 0 0 0 0 0 0 0 0 0 0 0 0 0 0 0 0
0 0 0 0 0 0 0 0 0 0 0 0 0 0 0 0 0 0 0 0 0 0 0 0 0 0 0 0 0 0 0 0 0 0 0 0 0 0 0 0 0 0 0 0
0 0 0 0 0 0 0 0 0 0 0 0 0 0 0 0 0 0 0 0 0 0 0 0 0 0 0 0 0 0 0 0 0 0 0 0 0 0 0 0 0 0 0 0
Wind_Speed
7 6 4 7 8 8 10 10 10 10 9 9 7 6 4 3 2 1 1 1 1 0 1 1 2 2 2 3 3 2 2 2 2 2 2 2 2 2 2 2 2 2 2 2
6 5 5 9 10 10 12 11 11 10 11 7 4 2 3 3 3 3 3 2 1 0 0 1 2 2 2 2 3 2 2 2 2 2 2 2 2 2 2 2 2 2 2 2
5 4 3 10 10 10 8 7 8 11 10 3 3 4 4 4 3 3 2 2 2 1 1 1 2 2 1 2 2 2 2 2 2 2 2 2 2 2 2 2 2 2 2 2
2 0 10 10 3 7 8 8 8 6 5 4 5 4 3 2 2 1 1 1 1 1 1 2 2 2 2 2 2 2 2 2 2 2 2 2 2 2 2 2 1 1 2 2
3 5 10 8 3 5 6 8 6 7 5 3 2 2 3 1 0 1 2 1 1 0 1 1 2 2 2 2 2 2 2 2 2 2 2 2 2 2 2 1 1 1 1 2
4 5 9 7 3 2 3 7 3 3 5 3 0 2 4 1 0 0 1 0 1 1 1 1 2 2 1 1 1 2 2 2 2 2 1 1 2 2 2 2 1 1 2 2
8 7 10 6 2 3 5 6 1 4 5 4 4 5 2 0 0 0 0 1 1 1 1 1 2 2 1 1 2 3 3 2 2 2 2 1 2 2 2 2 2 2 2 2
6 7 11 2 4 5 4 0 1 1 3 3 3 1 1 1 1 0 0 0 1 1 1 2 2 2 2 2 3 3 2 2 2 2 2 1 1 2 1 1 1 1 2 2
9 8 2 2 3 2 1 1 2 2 2 2 2 2 2 2 1 1 0 0 0 1 1 2 2 2 2 3 3 3 2 2 2 2 2 2 1 1 1 1 1 1 1 2
4 6 4 3 2 2 1 2 2 2 2 2 3 3 2 2 1 1 0 0 0 1 1 2 3 3 2 3 2 2 2 2 2 1 2 2 1 1 0 1 1 1 1 2
6 5 3 5 5 4 2 2 1 1 1 2 2 3 2 2 2 1 1 1 0 0 1 3 3 3 3 2 1 1 2 2 2 1 1 1 1 1 2 2 2 2 2 2
9 7 6 6 4 4 4 4 4 3 2 2 3 3 3 2 2 2 2 1 1 1 2 3 3 3 3 2 1 0 1 2 1 1 1 1 1 2 4 4 5 5 4 3
6 4 4 3 3 3 4 3 3 2 3 3 2 3 3 2 2 2 2 2 2 2 2 2 2 3 3 2 1 1 2 2 1 1 1 1 1 1 2 4 5 4 4 5
3 2 3 4 4 3 2 2 1 0 1 1 2 2 2 2 2 2 3 3 2 2 2 2 2 4 3 2 1 2 2 2 2 2 2 2 2 2 2 2 3 3 4 5
3 4 4 2 1 1 1 1 1 1 1 1 1 2 2 3 3 4 3 2 1 2 2 2 3 4 3 2 2 2 2 2 2 2 2 2 2 2 2 2 2 3 3 4
2 1 2 3 3 2 2 2 3 4 3 2 2 3 3 3 3 3 2 2 2 4 4 3 4 4 2 2 2 2 2 3 3 2 2 2 2 2 2 2 2 3 3 3
2 3 3 4 5 4 4 4 5 5 4 4 4 3 2 2 2 3 3 3 3 4 5 4 5 4 2 2 3 2 2 2 3 2 2 2 2 2 3 3 3 3 4 4
4 4 4 4 4 4 4 4 4 4 4 4 3 2 3 4 5 5 4 3 3 4 5 5 4 3 3 3 3 2 2 2 2 2 2 3 3 3 3 3 3 4 4 4
2 2 2 3 3 3 3 4 4 4 4 3 3 4 4 4 4 4 3 3 4 5 5 4 5 3 3 3 3 2 2 3 3 3 3 3 3 3 3 3 4 4 4 3
1 1 1 2 1 2 3 3 3 3 3 3 3 3 4 4 3 3 3 5 6 5 4 3 3 3 3 3 3 2 3 3 3 3 3 3 3 4 3 4 4 4 4 4
2 2 2 2 2 2 3 3 3 3 3 3 4 4 5 4 3 3 3 5 5 3 3 4 3 3 3 3 3 3 3 3 4 4 4 4 4 4 4 4 4 4 4 5
2 2 2 2 2 3 3 2 3 3 3 3 3 4 3 4 4 4 5 6 5 3 3 3 3 4 4 4 3 3 4 4 4 4 4 4 4 5 5 5 5 5 5 5
2 2 2 2 2 3 3 2 2 3 3 4 4 4 5 5 3 4 5 4 3 4 4 4 5 6 6 3 3 4 4 5 5 5 5 5 5 5 5 6 5 5 5 5
2 2 3 2 1 1 3 3 2 2 3 3 4 4 4 4 4 4 4 4 5 5 4 5 7 7 6 3 3 4 4 5 5 5 5 5 5 5 5 5 6 5 5 6
2 2 2 2 2 2 3 3 2 2 2 3 3 3 3 3 4 4 3 4 6 6 4 5 7 7 4 3 4 4 4 5 5 4 5 5 5 5 5 5 5 5 6 6
2 2 2 3 3 3 2 2 2 2 2 3 4 3 2 2 3 4 3 4 5 5 5 4 4 4 4 4 5 5 5 5 5 5 5 5 5 6 5 6 7 6 6 6
2 2 2 2 2 2 2 2 2 3 3 3 4 4 3 3 3 3 4 4 4 4 4 4 4 4 4 4 5 5 5 5 5 5 5 5 5 5 6 7 6 6 6 6
Wind_Direction
251 258 238 236 242 224 218 223 229 245 242 252 250 246 246 254 236 192 203 194 190 201 321 342 351 348 350 346 348 354 5 359 335 330 337 350 351 349 356 358 345 347 0 351
266 258 261 263 250 236 235 236 241 256 260 261 269 273 263 252 230 228 222 214 216 215 329 336 332 325 341 341 340 355 356 332 333 345 353 357 347 351 2 360 2 15 7 354
260 284 317 266 237 222 223 219 214 234 245 251 259 250 248 247 247 239 221 212 224 238 253 301 309 313 315 320 336 354 349 338 344 351 349 346 350 10 360 349 4 10 2 354
239 21 241 248 214 210 220 232 224 234 243 234 237 249 258 235 221 237 228 222 239 260 310 327 327 337 343 351 356 0 351 344 348 349 340 344 360 360 343 343 341 341 352 345
194 233 266 278 233 192 208 249 230 234 247 271 301 311 282 279 122 217 247 237 219 219 317 331 337 346 5 5 6 7 344 338 337 336 337 341 340 330 330 330 331 329 349 354
195 214 240 250 226 192 159 258 226 206 227 235 182 263 260 218 50 350 328 49 92 60 32 3 348 9 22 350 351 333 319 317 324 334 327 318 316 322 328 319 321 340 2 0
215 231 255 253 222 133 186 248 217 206 214 203 216 239 251 131 247 168 117 75 80 70 40 0 357 23 15 348 328 321 328 329 336 336 323 325 336 341 344 346 354 353 352 349
193 219 249 221 148 183 217 8 194 215 207 206 227 255 217 186 194 199 355 52 78 67 15 2 4 18 4 341 332 341 346 343 339 337 338 354 358 358 5 6 7 349 344 341
199 216 236 164 178 196 151 208 251 240 229 191 209 234 230 207 199 224 251 317 56 70 9 359 3 14 344 326 341 344 344 337 336 339 351 0 354 355 11 14 0 327 320 317
238 252 247 240 241 271 267 247 251 227 210 196 217 222 218 213 218 229 260 324 12 38 345 334 346 351 332 322 338 333 319 323 331 335 346 357 345 333 290 257 273 277 286 295
242 256 281 260 236 226 231 232 238 251 236 225 214 229 220 220 229 233 252 285 275 258 285 304 324 330 329 330 337 322 314 319 325 326 324 326 323 296 280 254 243 243 246 253
233 222 214 236 222 206 210 230 230 231 252 250 221 222 221 228 232 229 238 247 243 255 274 293 308 308 317 324 312 274 300 309 304 301 303 304 311 317 314 305 297 291 285 281
240 246 232 242 242 217 211 225 227 217 223 235 235 212 209 227 235 229 238 232 235 244 257 274 288 293 303 313 283 234 244 266 277 277 273 276 281 291 310 323 321 317 312 309
231 207 242 248 248 236 202 203 201 219 245 218 227 215 199 209 228 232 242 247 242 240 247 260 272 281 293 294 258 249 250 252 251 253 253 252 252 255 255 275 300 305 313 312
250 235 228 226 209 206 191 163 178 248 257 260 225 219 216 220 234 246 256 257 245 244 252 252 262 276 290 271 249 248 250 252 249 251 252 252 255 253 247 249 263 283 306 309
247 231 210 206 216 220 202 195 218 241 241 244 241 242 243 239 246 258 260 231 226 247 254 250 258 270 272 251 249 251 250 256 252 245 249 251 250 249 253 252 257 265 272 284
195 230 228 229 228 227 223 222 226 239 242 240 238 240 237 237 255 263 262 252 246 254 255 248 259 271 261 243 237 242 246 251 245 239 239 241 242 243 247 249 254 260 264 272
227 228 221 216 223 230 239 236 233 237 240 243 237 222 218 222 238 252 262 271 274 275 263 254 255 253 252 246 237 234 232 235 234 235 241 244 245 244 243 247 253 262 276 284
256 246 242 234 227 225 236 241 242 241 245 237 221 225 232 237 240 249 257 258 255 265 269 256 261 255 255 255 248 229 226 231 239 241 239 244 251 248 243 245 251 256 263 271
293 282 269 267 249 227 239 248 248 250 247 229 223 233 246 250 244 246 247 253 249 250 265 268 262 255 254 256 260 240 233 231 236 240 238 237 243 248 247 247 249 254 257 258
290 282 263 259 267 261 250 247 241 249 252 227 221 232 245 258 247 235 240 264 266 247 256 260 258 258 254 250 243 237 236 236 237 239 240 240 243 247 249 250 250 252 255 258
292 284 277 271 271 284 283 261 246 249 253 246 241 240 246 258 255 253 245 248 267 270 265 261 258 257 257 253 243 239 240 241 242 242 241 239 240 245 249 249 251 252 252 253
291 281 277 272 267 281 300 291 260 249 249 249 248 246 246 252 248 246 269 261 260 268 269 263 267 269 267 255 243 242 242 243 242 241 242 243 243 244 248 250 251 252 253 254
289 285 282 285 281 287 293 293 286 270 262 265 259 252 248 260 269 248 253 276 278 278 275 270 271 273 273 260 251 249 247 247 247 246 246 247 248 249 251 253 255 254 254 255
283 284 285 283 274 270 273 291 303 297 290 285 282 270 252 242 252 270 274 274 276 280 279 276 276 277 273 260 254 252 252 250 250 249 246 247 249 251 252 254 255 259 258 257
282 280 277 271 269 273 278 279 280 284 288 293 294 289 280 273 268 272 275 274 272 274 274 275 272 270 264 259 256 256 257 259 258 255 251 251 252 252 253 254 254 255 257 258
292 287 292 299 293 280 275 270 269 276 274 274 286 291 288 285 282 281 281 281 279 277 275 274 270 265 263 263 263 263 261 259 258 257 257 255 254 253 255 255 257 258 258 259